Lid_Strength_Index
10 9 9 9 10 11 12 11 13 12 12 10 9 9 8 8 9 10 10 10 11 12 12 12 12 12 12 13 13 13 14 14 15 14 13 12 12 12 11 11 10 9 9 9
12 9 9 10 10 10 10 10 11 11 12 9 8 8 8 9 9 10 10 10 10 12 11 12 12 12 13 13 13 13 14 14 13 12 12 12 12 12 12 12 11 10 9 9
14 10 10 14 10 10 10 10 11 12 11 9 9 8 8 9 8 9 9 10 11 11 11 11 11 12 14 14 13 13 14 13 12 12 12 11 11 12 12 12 11 10 10 10
14 12 19 10 8 8 10 9 9 9 9 9 10 9 9 8 9 9 9 10 10 11 12 12 13 14 14 13 13 14 14 13 12 12 11 11 12 12 12 12 11 10 10 10
16 16 13 10 9 10 11 11 9 9 9 9 9 9 10 8 8 9 9 9 11 11 12 12 13 14 14 14 14 14 13 12 12 12 12 12 12 12 12 12 11 11 10 11
16 17 18 12 8 7 8 14 7 9 9 10 10 13 12 9 8 9 10 11 11 12 12 13 14 14 14 15 15 14 12 12 12 11 12 12 13 13 13 12 12 11 11 11
15 17 14 8 8 6 14 13 7 7 8 8 10 10 10 9 9 9 10 11 11 12 13 14 13 14 15 15 15 13 11 11 11 12 12 12 13 14 14 13 13 12 12 12
14 16 18 7 8 11 9 7 7 7 8 9 9 9 9 9 10 11 12 12 11 13 14 14 14 14 15 16 14 12 12 12 12 13 11 12 15 15 15 15 15 14 13 13
12 12 8 6 8 7 6 7 7 8 9 8 9 9 10 11 11 11 11 11 12 14 14 14 14 14 15 15 13 12 13 14 13 13 13 13 16 16 16 16 15 14 13 14
10 8 8 7 7 6 5 6 6 7 7 8 9 10 11 11 11 11 11 12 13 14 15 15 15 15 16 15 14 14 14 13 13 14 14 14 14 14 16 16 15 14 14 15
10 8 7 8 7 6 6 6 6 7 7 8 9 10 10 10 11 11 12 13 13 14 15 16 16 16 16 13 12 11 12 12 13 13 13 14 14 14 14 15 14 15 15 14
12 8 8 8 7 5 7 7 7 8 9 8 9 9 10 10 10 11 13 14 14 15 16 17 16 16 14 11 10 12 13 13 13 13 14 14 14 13 12 13 12 11 10 12
8 7 7 7 6 6 7 7 7 8 8 9 9 9 9 10 11 12 13 14 16 16 17 16 16 15 12 10 10 12 13 12 13 13 13 13 13 13 15 14 12 11 9 9
5 6 7 6 8 7 7 7 7 7 7 7 8 8 9 11 13 14 15 15 16 17 17 16 15 13 11 11 12 13 13 11 13 13 14 14 15 14 14 15 16 15 11 11
6 6 6 7 7 7 7 7 9 9 8 8 8 11 12 14 15 16 16 16 16 16 18 16 13 12 11 11 12 12 13 13 13 14 14 14 13 13 13 13 14 14 14 13
7 7 7 8 8 8 8 8 9 10 12 12 14 14 15 15 16 17 17 16 16 16 15 14 13 12 11 11 12 13 13 13 13 13 13 13 13 13 13 13 14 14 14 14
9 9 8 8 8 8 8 8 9 11 13 14 14 15 16 17 17 17 17 15 14 13 12 13 15 13 11 11 12 14 14 13 15 13 13 13 14 14 13 14 14 14 14 14
6 6 6 7 8 8 9 10 11 13 14 14 15 17 17 17 16 17 16 13 15 16 13 12 13 13 11 11 12 13 13 12 12 13 13 13 14 13 13 13 13 13 14 13
7 8 7 7 7 9 11 12 13 13 14 17 17 18 18 17 16 17 16 17 17 14 14 12 12 12 11 12 12 12 12 12 12 13 13 15 13 14 15 15 14 14 13 14
11 11 12 12 12 12 13 13 13 14 16 16 16 16 16 17 17 17 17 15 13 12 12 12 12 12 11 12 13 12 12 12 12 13 14 13 15 17 16 17 15 15 17 16
12 12 13 13 13 13 13 13 13 14 15 17 16 16 16 17 17 17 15 14 12 12 11 13 12 12 11 13 13 12 11 12 13 14 14 16 18 16 16 17 17 18 18 17
13 13 13 13 14 14 13 13 13 14 13 13 15 16 16 15 18 15 16 12 12 13 12 12 12 13 12 14 13 12 11 11 12 13 15 16 16 17 18 17 17 18 19 21
11 12 13 14 13 14 14 13 13 12 14 16 15 14 12 12 12 13 13 11 12 13 12 12 14 16 16 13 13 13 13 14 15 15 16 18 17 17 16 17 17 17 19 20
10 11 11 12 12 13 14 13 12 12 12 11 11 12 11 12 13 11 10 13 14 15 14 14 16 16 15 15 15 16 16 16 16 16 15 16 18 17 16 18 17 18 18 19
9 11 11 12 12 13 12 11 11 11 11 11 11 11 10 9 11 11 12 12 15 13 14 17 16 17 16 16 17 17 16 16 15 13 16 16 17 18 17 17 18 17 18 19
9 10 10 11 12 11 10 10 11 11 11 12 12 10 10 10 9 9 10 10 13 14 14 18 18 18 18 16 17 17 16 14 15 16 17 16 16 17 17 16 17 17 17 18
10 12 12 12 10 10 10 10 11 11 11 12 13 10 10 10 10 10 10 10 11 15 10 12 16 16 16 17 16 16 17 16 16 16 17 16 16 16 18 18 17 17 17 17